Location: Newark
(33.2833°N, 8.3333°W)
Time: 18:30:17
(UTC+00:00)

Hubble Space Telescope - Pass Details

Date: 22 September 2019
Orbit: 536 x 540 km, 28.5° (Epoch: 21 October)

Event Time Altitude Azimuth Distance (km) Brightness Sun altitude
Exits shadow 04:16:16 18° 142° (SE) 1,364 3.0 -26.4°
Drops below altitude 10° 04:17:32 10° 131° (SE) 1,776 3.7 -26.2°
Sets 04:19:59 0° 120° (ESE) 2,666 4.9 -25.7°
